Williams, AZ

6:25 AM MST on February 22, 2017 (GMT -0700)
Williams

Weather History for KCMR - May, 2014

Change the Weather History Date:

Saturday, May 17, 2014

  Actual Average (K40G) Record (K40G)
Temperature  
Mean Temperature 60 °F -  
Max Temperature 78 °F 65 °F 80 °F (1998)
Min Temperature 42 °F 58 °F 53 °F (1998)
Degree Days  
Heating Degree Days 5    
Growing Degree Days 10 (Base 50)    
Moisture  
Dew Point 10 °F    
Average Humidity 13    
Maximum Humidity 31    
Minimum Humidity 6    
Precipitation  
Precipitation 0.00 in - - ()
Sea Level Pressure  
Sea Level Pressure 30.20 in    
Wind  
Wind Speed 9 mph (SSW)    
Max Wind Speed 17 mph    
Max Gust Speed 29 mph    
Visibility 10 miles    
Events      
Averages and records for this station are not official NWS values.
T = Trace of Precipitation, MM = Missing Value Source: NWS Daily Summary

Daily Weather History Graph

Daily Weather History Graph

Search for Another Location

Airport or City:

Trip Planner

Search our weather history database for the weather conditions in past years. The results will help you decide how hot, cold, wet, or windy it might be!

Date:

Astronomy

May. 17, 2014 Rise Set
Actual Time 5:22 AM MST 7:27 PM MST
Civil Twilight 4:54 AM MST 7:56 PM MST
Nautical Twilight 4:20 AM MST 8:30 PM MST
Astronomical Twilight 3:42 AM MST 9:08 PM MST
Moon 10:32 PM MST (5/17) 8:09 AM MST (5/17)
Length of Visible Light 15h 01m
Length of Day
14h 04m
Waning Gibbous, 88% of the Moon is Illuminated
May 17
Waning Gibbous
May 21
Last Quarter
May 28
New
Jun 5
First Quarter
Jun 12
Full

Hourly Weather History & Observations

Time (MST) Temp. Windchill Dew Point Humidity Pressure Visibility Wind Dir Wind Speed Gust Speed Precip Events Conditions
12:15 AM 59.0 °F - 8.6 °F 14% 30.26 in 10.0 mi South 5.8 mph - N/A   Clear
12:35 AM 59.0 °F - 8.6 °F 14% 30.26 in 10.0 mi SSW 6.9 mph - N/A   Clear
12:55 AM 59.0 °F - 8.6 °F 14% 30.26 in 10.0 mi South 3.5 mph - N/A   Clear
1:15 AM 53.6 °F - 10.4 °F 18% 30.25 in 10.0 mi Calm Calm - N/A   Clear
1:35 AM 50.0 °F - 10.4 °F 20% 30.25 in 10.0 mi SSE 5.8 mph - N/A   Clear
2:15 AM 48.2 °F - 12.2 °F 24% 30.24 in 10.0 mi SSE 8.1 mph - N/A   Clear
2:35 AM 48.2 °F - 12.2 °F 24% 30.24 in 10.0 mi SE 8.1 mph - N/A   Clear
2:55 AM 46.4 °F 42.4 °F 14.0 °F 27% 30.23 in 10.0 mi SSE 8.1 mph - N/A   Clear
3:15 AM 46.4 °F 42.9 °F 14.0 °F 27% 30.23 in 10.0 mi SE 6.9 mph - N/A   Clear
3:35 AM 44.6 °F 41.4 °F 14.0 °F 29% 30.23 in 10.0 mi SSE 5.8 mph - N/A   Clear
3:55 AM 44.6 °F 40.7 °F 14.0 °F 29% 30.23 in 10.0 mi SSE 6.9 mph - N/A   Clear
4:55 AM 42.8 °F 38.0 °F 14.0 °F 31% 30.23 in 10.0 mi SE 8.1 mph - N/A   Clear
5:15 AM 42.8 °F 39.3 °F 12.2 °F 29% 30.23 in 10.0 mi SE 5.8 mph - N/A   Clear
5:35 AM 44.6 °F 40.2 °F 12.2 °F 27% 30.23 in 10.0 mi SE 8.1 mph - N/A   Clear
5:55 AM 46.4 °F 42.4 °F 12.2 °F 25% 30.23 in 10.0 mi SSE 8.1 mph - N/A   Clear
6:15 AM 46.4 °F 42.9 °F 14.0 °F 27% 30.24 in 10.0 mi SSE 6.9 mph - N/A   Clear
6:35 AM 50.0 °F - 14.0 °F 24% 30.24 in 10.0 mi SE 5.8 mph - N/A   Clear
7:15 AM 57.2 °F - 17.6 °F 21% 30.24 in 10.0 mi SE 5.8 mph - N/A   Clear
7:35 AM 66.2 °F - 15.8 °F 14% 30.24 in 10.0 mi SSW 9.2 mph - N/A   Clear
7:55 AM 69.8 °F - 10.4 °F 10% 30.23 in 10.0 mi SSW 10.4 mph - N/A   Clear
8:15 AM 71.6 °F - 10.4 °F 9% 30.24 in 10.0 mi SW 13.8 mph 17.3 mph N/A   Clear
8:35 AM 71.6 °F - 10.4 °F 9% 30.24 in 10.0 mi SW 10.4 mph - N/A   Clear
8:55 AM 73.4 °F - 12.2 °F 10% 30.24 in 10.0 mi SSW 12.7 mph 18.4 mph N/A   Clear
9:15 AM 71.6 °F - 12.2 °F 10% 30.24 in 10.0 mi SW 9.2 mph - N/A   Clear
9:35 AM 73.4 °F - 12.2 °F 10% 30.24 in 10.0 mi SSW 6.9 mph 19.6 mph N/A   Clear
9:55 AM 73.4 °F - 10.4 °F 9% 30.24 in 10.0 mi WSW 11.5 mph 20.7 mph N/A   Clear
10:15 AM 75.2 °F - 10.4 °F 8% 30.24 in 10.0 mi WSW 10.4 mph 18.4 mph N/A   Clear
10:35 AM 73.4 °F - 10.4 °F 9% 30.24 in 10.0 mi SW 17.3 mph 24.2 mph N/A   Clear
10:55 AM 75.2 °F - 10.4 °F 8% 30.24 in 10.0 mi SSW 11.5 mph 23.0 mph N/A   Clear
11:15 AM 75.2 °F - 10.4 °F 8% 30.23 in 10.0 mi South 11.5 mph 21.9 mph N/A   Clear
11:35 AM 77.0 °F - 10.4 °F 8% 30.23 in 10.0 mi SSW 12.7 mph 18.4 mph N/A   Clear
11:55 AM 77.0 °F - 10.4 °F 8% 30.22 in 10.0 mi West 9.2 mph 20.7 mph N/A   Clear
12:15 PM 77.0 °F - 14.0 °F 9% 30.21 in 10.0 mi SW 15.0 mph 21.9 mph N/A   Clear
12:35 PM 77.0 °F - 12.2 °F 9% 30.21 in 10.0 mi WSW 15.0 mph 28.8 mph N/A   Clear
12:55 PM 77.0 °F - 12.2 °F 9% 30.20 in 10.0 mi SW 17.3 mph 24.2 mph N/A   Clear
1:15 PM 77.0 °F - 12.2 °F 9% 30.19 in 10.0 mi SW 15.0 mph 23.0 mph N/A   Clear
1:35 PM 78.8 °F - 10.4 °F 7% 30.19 in 10.0 mi SSW 15.0 mph 28.8 mph N/A   Clear
1:55 PM 78.8 °F - 10.4 °F 7% 30.18 in 10.0 mi SSW 8.1 mph 24.2 mph N/A   Clear
2:15 PM 78.8 °F - 10.4 °F 7% 30.18 in 10.0 mi SW 12.7 mph 24.2 mph N/A   Clear
2:35 PM 78.8 °F - 8.6 °F 7% 30.17 in 10.0 mi West 16.1 mph 26.5 mph N/A   Clear
3:15 PM 77.0 °F - 6.8 °F 7% 30.17 in 10.0 mi SW 17.3 mph 25.3 mph N/A   Clear
3:35 PM 78.8 °F - 6.8 °F 6% 30.16 in 10.0 mi WSW 8.1 mph 20.7 mph N/A   Clear
3:55 PM 77.0 °F - 8.6 °F 7% 30.16 in 10.0 mi SSW 17.3 mph 21.9 mph N/A   Clear
4:15 PM 77.0 °F - 8.6 °F 7% 30.16 in 10.0 mi SW 15.0 mph 21.9 mph N/A   Clear
4:35 PM 77.0 °F - 8.6 °F 7% 30.15 in 10.0 mi South 10.4 mph 20.7 mph N/A   Clear
4:55 PM 77.0 °F - 6.8 °F 7% 30.15 in 10.0 mi SSW 12.7 mph 21.9 mph N/A   Clear
5:15 PM 77.0 °F - 6.8 °F 7% 30.15 in 10.0 mi WSW 6.9 mph 19.6 mph N/A   Clear
5:35 PM 75.2 °F - 8.6 °F 8% 30.15 in 10.0 mi SW 15.0 mph 20.7 mph N/A   Clear
6:15 PM 73.4 °F - 8.6 °F 8% 30.14 in 10.0 mi South 12.7 mph 18.4 mph N/A   Clear
6:35 PM 73.4 °F - 8.6 °F 8% 30.14 in 10.0 mi South 11.5 mph 17.3 mph N/A   Clear
6:55 PM 71.6 °F - 8.6 °F 9% 30.15 in 10.0 mi SSW 10.4 mph 20.7 mph N/A   Clear
7:35 PM 68.0 °F - 8.6 °F 10% 30.16 in 10.0 mi South 11.5 mph 18.4 mph N/A   Clear
7:55 PM 66.2 °F - 6.8 °F 10% 30.16 in 10.0 mi South 10.4 mph - N/A   Clear
8:15 PM 66.2 °F - 6.8 °F 10% 30.17 in 10.0 mi South 9.2 mph - N/A   Clear
8:35 PM 64.4 °F - 6.8 °F 10% 30.17 in 10.0 mi South 10.4 mph - N/A   Clear
8:55 PM 64.4 °F - 5.0 °F 10% 30.17 in 10.0 mi South 10.4 mph - N/A   Clear
9:15 PM 64.4 °F - 5.0 °F 10% 30.18 in 10.0 mi South 10.4 mph - N/A   Clear
9:35 PM 64.4 °F - 6.8 °F 10% 30.18 in 10.0 mi South 10.4 mph - N/A   Clear
9:55 PM 64.4 °F - 6.8 °F 10% 30.18 in 10.0 mi South 8.1 mph - N/A   Clear
10:35 PM 60.8 °F - 8.6 °F 13% 30.18 in 10.0 mi South 9.2 mph - N/A   Clear
10:55 PM 62.6 °F - 10.4 °F 13% 30.18 in 10.0 mi South 11.5 mph 17.3 mph N/A   Clear
11:15 PM 64.4 °F - 10.4 °F 12% 30.18 in 10.0 mi South 11.5 mph 19.6 mph N/A   Clear
11:35 PM 64.4 °F - 10.4 °F 12% 30.17 in 10.0 mi South 12.7 mph 19.6 mph N/A   Clear
11:55 PM 64.4 °F - 12.2 °F 13% 30.17 in 10.0 mi South 11.5 mph 19.6 mph N/A   Clear